Regional Weather Roundup
Issued by NWS Goodland, KS

Home | Current Version | Previous Version | Graphics & Text | Print | Product List | Glossary On
Versions: 1 2 3 4 5 6 7 8 9 10 11 12 13 14 15 16 17 18 19 20 21 22 23 24 25 26 27 28 29 30 31 32 33 34 35 36 37 38 39 40 41 42 43 44 45 46 47 48 49 50
000
ASUS43 KGLD 251559
RWRGLD

GOODLAND FORECAST AREA HOURLY WEATHER ROUNDUP
NATIONAL WEATHER SERVICE GOODLAND KS
1000 AM MDT SAT APR 25 2015

...OFFICIAL OBSERVATIONS...

CITY           SKY/WX    TMP DP  RH WIND       PRES   REMARKS
GOODLAND KS    SUNNY     59  45  59 N12       29.72R
HILL CITY KS   MOSUNNY   63  53  70 N16       29.66R
IMPERIAL NEB   SUNNY     60  46  59 N10       29.70R
MCCOOK NEB     SUNNY     63  51  65 NE12      29.68R
AKRON CO       SUNNY     61  38  42 N10       29.74R
BURLINGTON CO  SUNNY     63  41  44 N12       29.75R
LIMON CO       SUNNY     59  32  36 CALM      29.77S
$$

...UNOFFICIAL OBSERVATIONS...

CITY           SKY/WX    TMP DP  RH WIND       PRES   REMARKS
COLBY KS       SUNNY     63  50  63 NW15      29.71R
GOVE KS          N/A     61  32  33 MISG        N/A
LENORA KS        N/A     61  32  33 MISG        N/A
NORTON KS      SUNNY     61  48  63 N13       29.65R
SHARON SPRINGS   N/A     62  49  62 N10         N/A
TRIBUNE KS     SUNNY     68  48  49 NW16G23   29.74R
KIT CARSON CO    N/A     65  41  41 MISG        N/A
YUMA CO          N/A     60  42  51 N8          N/A
$$


USA.gov is the U.S. government's official web portal to all federal, state and local government web resources and services.